• In Deutschland
  • Länderverzeichnis
  • Für 7 Tage
  • Wassertemperatur
  • Satellitenkarten
  • Wetterkarte
  • Widgets
  • user-avatar
    Anmelden

    Stündliche Wetter Loubomo

    Heute, 26 September, Dienstag

    Zeit Temperatur Niederschläge Wind Luftdruck Luftfeuchtigkeit
    00:00 +20°C° 0,9 mm 0 m/S 700 mmHg 98%
    01:00 +20°C° 0,9 mm 0 m/S 700 mmHg 98%
    02:00 +20°C° 0,3 mm 0 m/S 700 mmHg 99%
    03:00 +20°C° 0,3 mm 0 m/S 700 mmHg 99%
    04:00 +22°C° 0,3 mm 1 m/S 700 mmHg 99%
    05:00 +22°C° 0,1 mm 1 m/S 700 mmHg 99%
    06:00 +22°C° 0,1 mm 1 m/S 700 mmHg 99%
    07:00 +22°C° 0,1 mm 1 m/S 700 mmHg 99%
    08:00 +23°C° 0,1 mm 1 m/S 701 mmHg 96%
    09:00 +24°C° 0,1 mm 1 m/S 701 mmHg 92%
    10:00 +25°C° 0,1 mm 1 m/S 701 mmHg 89%
    11:00 +26°C° 0,2 mm 1 m/S 701 mmHg 83%
    12:00 +28°C° 0,2 mm 1 m/S 700 mmHg 76%
    13:00 +29°C° 0,2 mm 1 m/S 700 mmHg 70%
    14:00 +28°C° 1,6 mm 1 m/S 699 mmHg 76%
    15:00 +28°C° 1,6 mm 1 m/S 699 mmHg 82%
    16:00 +27°C° 1,6 mm 1 m/S 698 mmHg 89%
    17:00 +26°C° 1,2 mm 1 m/S 698 mmHg 91%
    18:00 +23°C° 1,2 mm 0 m/S 699 mmHg 94%
    19:00 +21°C° 1,2 mm 0 m/S 699 mmHg 96%
    20:00 +21°C° 0,3 mm 0 m/S 699 mmHg 97%
    21:00 +22°C° 0,3 mm 1 m/S 700 mmHg 98%
    22:00 +22°C° 0,3 mm 1 m/S 700 mmHg 98%
    23:00 +22°C° 0,2 mm 1 m/S 700 mmHg 98%

    Morgen, 27 September, Mittwoch

    Zeit Temperatur Niederschläge Wind Luftdruck Luftfeuchtigkeit
    00:00 +22°C° 0,2 mm 1 m/S 700 mmHg 99%
    01:00 +21°C° 0,2 mm 1 m/S 700 mmHg 99%
    02:00 +21°C° 0 mm 1 m/S 700 mmHg 99%
    03:00 +21°C° 0 mm 1 m/S 700 mmHg 99%
    04:00 +21°C° 0 mm 1 m/S 699 mmHg 99%
    05:00 +22°C° 0,1 mm 1 m/S 700 mmHg 99%
    06:00 +20°C° 0,1 mm 0 m/S 700 mmHg 98%
    07:00 +20°C° 0,1 mm 0 m/S 701 mmHg 98%
    08:00 +21°C° 0,2 mm 0 m/S 701 mmHg 95%
    09:00 +24°C° 0,2 mm 1 m/S 702 mmHg 91%
    10:00 +25°C° 0,2 mm 1 m/S 702 mmHg 88%
    11:00 +26°C° 0,5 mm 1 m/S 701 mmHg 86%
    12:00 +26°C° 0,5 mm 1 m/S 700 mmHg 84%
    13:00 +27°C° 0,5 mm 1 m/S 700 mmHg 82%
    14:00 +25°C° 0,5 mm 0 m/S 699 mmHg 83%
    15:00 +25°C° 0,5 mm 0 m/S 698 mmHg 83%
    16:00 +24°C° 0,5 mm 0 m/S 698 mmHg 84%
    17:00 +23°C° 0,4 mm 0 m/S 698 mmHg 88%
    18:00 +22°C° 0,4 mm 0 m/S 699 mmHg 92%
    19:00 +21°C° 0,4 mm 0 m/S 699 mmHg 96%
    20:00 +21°C° 0,5 mm 0 m/S 700 mmHg 97%
    21:00 +21°C° 0,5 mm 0 m/S 701 mmHg 97%
    22:00 +20°C° 0,5 mm 0 m/S 701 mmHg 97%
    23:00 +20°C° 0,5 mm 0 m/S 701 mmHg 97%

    übermorgen, 28 September, Donnerstag

    Zeit Temperatur Niederschläge Wind Luftdruck Luftfeuchtigkeit
    00:00 +20°C° 0,5 mm 0 m/S 701 mmHg 97%
    01:00 +20°C° 0,5 mm 0 m/S 700 mmHg 98%
    02:00 +20°C° 0 mm 0 m/S 700 mmHg 98%
    03:00 +20°C° 0 mm 0 m/S 700 mmHg 98%
    04:00 +19°C° 0 mm 0 m/S 699 mmHg 99%
    05:00 +20°C° 0 mm 0 m/S 700 mmHg 98%
    06:00 +20°C° 0 mm 0 m/S 701 mmHg 98%
    07:00 +20°C° 0 mm 0 m/S 701 mmHg 98%
    08:00 +23°C° 0 mm 0 m/S 702 mmHg 85%
    09:00 +25°C° 0 mm 0 m/S 703 mmHg 73%
    10:00 +28°C° 0 mm 0 m/S 703 mmHg 61%
    11:00 +29°C° 0,6 mm 0 m/S 702 mmHg 63%
    12:00 +29°C° 0,6 mm 0 m/S 701 mmHg 64%
    13:00 +30°C° 0,6 mm 0 m/S 701 mmHg 66%
    14:00 +29°C° 1,3 mm 0 m/S 700 mmHg 70%
    15:00 +28°C° 1,3 mm 0 m/S 699 mmHg 74%
    16:00 +29°C° 1,3 mm 1 m/S 699 mmHg 79%
    17:00 +27°C° 0,6 mm 1 m/S 699 mmHg 85%
    18:00 +25°C° 0,6 mm 1 m/S 700 mmHg 91%
    19:00 +24°C° 0,6 mm 1 m/S 700 mmHg 97%
    20:00 +23°C° 0,5 mm 1 m/S 700 mmHg 97%
    21:00 +23°C° 0,5 mm 1 m/S 701 mmHg 97%
    22:00 +22°C° 0,5 mm 1 m/S 702 mmHg 98%
    23:00 +22°C° 0,7 mm 1 m/S 701 mmHg 98%

    29 September, Freitag

    Zeit Temperatur Niederschläge Wind Luftdruck Luftfeuchtigkeit
    00:00 +22°C° 0,7 mm 1 m/S 701 mmHg 99%
    01:00 +22°C° 0,7 mm 1 m/S 701 mmHg 99%
    02:00 +22°C° 0 mm 1 m/S 700 mmHg 99%
    03:00 +22°C° 0 mm 1 m/S 700 mmHg 99%
    04:00 +21°C° 0 mm 1 m/S 700 mmHg 99%
    05:00 +22°C° 0 mm 1 m/S 700 mmHg 99%
    06:00 +22°C° 0 mm 1 m/S 701 mmHg 98%
    07:00 +22°C° 0 mm 1 m/S 701 mmHg 98%
    08:00 +23°C° 0 mm 1 m/S 701 mmHg 94%
    09:00 +24°C° 0 mm 1 m/S 702 mmHg 89%
    10:00 +25°C° 0 mm 1 m/S 702 mmHg 85%
    11:00 +27°C° 0 mm 1 m/S 701 mmHg 76%
    12:00 +29°C° 0 mm 1 m/S 700 mmHg 67%
    13:00 +31°C° 0 mm 1 m/S 700 mmHg 58%
    14:00 +30°C° 0,5 mm 1 m/S 699 mmHg 64%
    15:00 +30°C° 0,5 mm 1 m/S 699 mmHg 70%
    16:00 +29°C° 0,5 mm 1 m/S 699 mmHg 75%
    17:00 +27°C° 0,5 mm 1 m/S 699 mmHg 83%
    18:00 +25°C° 0,5 mm 1 m/S 700 mmHg 90%
    19:00 +23°C° 0,5 mm 1 m/S 700 mmHg 98%
    20:00 +23°C° 0 mm 1 m/S 700 mmHg 98%
    21:00 +23°C° 0 mm 1 m/S 701 mmHg 98%
    22:00 +22°C° 0 mm 1 m/S 701 mmHg 99%
    23:00 +22°C° 0 mm 1 m/S 701 mmHg 99%

    30 September, Samstag

    Zeit Temperatur Niederschläge Wind Luftdruck Luftfeuchtigkeit
    00:00 +22°C° 0 mm 1 m/S 700 mmHg 99%
    01:00 +22°C° 0 mm 1 m/S 700 mmHg 99%
    02:00 +22°C° 0 mm 1 m/S 700 mmHg 99%
    03:00 +22°C° 0 mm 1 m/S 699 mmHg 99%
    04:00 +22°C° 0 mm 1 m/S 699 mmHg 99%
    05:00 +22°C° 0 mm 1 m/S 700 mmHg 98%
    06:00 +22°C° 0 mm 1 m/S 700 mmHg 98%
    07:00 +20°C° 0 mm 0 m/S 701 mmHg 98%
    08:00 +21°C° 0 mm 0 m/S 701 mmHg 93%
    09:00 +24°C° 0 mm 1 m/S 702 mmHg 88%
    10:00 +25°C° 0 mm 1 m/S 702 mmHg 83%
    11:00 +27°C° 0 mm 1 m/S 701 mmHg 76%
    12:00 +28°C° 0 mm 1 m/S 700 mmHg 69%
    13:00 +30°C° 0 mm 1 m/S 700 mmHg 63%
    14:00 +28°C° 0,1 mm 0 m/S 699 mmHg 62%
    15:00 +28°C° 0,1 mm 0 m/S 699 mmHg 62%
    16:00 +29°C° 0,1 mm 0 m/S 698 mmHg 62%
    17:00 +26°C° 0,1 mm 0 m/S 699 mmHg 70%
    18:00 +24°C° 0,1 mm 0 m/S 699 mmHg 79%
    19:00 +22°C° 0,1 mm 0 m/S 699 mmHg 88%
    20:00 +22°C° 0,4 mm 0 m/S 700 mmHg 91%
    21:00 +21°C° 0,4 mm 0 m/S 700 mmHg 94%
    22:00 +20°C° 0,4 mm 0 m/S 700 mmHg 97%
    23:00 +20°C° 0,6 mm 0 m/S 700 mmHg 98%

    1 Oktober, Sonntag

    Zeit Temperatur Niederschläge Wind Luftdruck Luftfeuchtigkeit
    00:00 +20°C° 0,6 mm 0 m/S 700 mmHg 98%
    01:00 +20°C° 0,6 mm 0 m/S 700 mmHg 99%
    02:00 +20°C° 0,1 mm 0 m/S 700 mmHg 99%
    03:00 +22°C° 0,1 mm 1 m/S 699 mmHg 99%
    04:00 +22°C° 0,1 mm 1 m/S 699 mmHg 99%
    05:00 +22°C° 0 mm 1 m/S 700 mmHg 99%
    06:00 +22°C° 0 mm 1 m/S 700 mmHg 99%
    07:00 +22°C° 0 mm 1 m/S 701 mmHg 98%
    08:00 +23°C° 0,1 mm 1 m/S 701 mmHg 96%
    09:00 +24°C° 0,1 mm 1 m/S 701 mmHg 93%
    10:00 +23°C° 0,1 mm 0 m/S 702 mmHg 90%
    11:00 +26°C° 0,2 mm 1 m/S 701 mmHg 86%
    12:00 +26°C° 0,2 mm 1 m/S 700 mmHg 83%
    13:00 +27°C° 0,2 mm 1 m/S 700 mmHg 79%
    14:00 +27°C° 0 mm 1 m/S 699 mmHg 76%
    15:00 +28°C° 0 mm 1 m/S 699 mmHg 73%
    16:00 +26°C° 0 mm 0 m/S 698 mmHg 70%
    17:00 +24°C° 0,1 mm 0 m/S 699 mmHg 76%
    18:00 +23°C° 0,1 mm 0 m/S 699 mmHg 83%
    19:00 +22°C° 0,1 mm 0 m/S 699 mmHg 90%
    20:00 +21°C° 0,1 mm 0 m/S 700 mmHg 92%
    21:00 +21°C° 0,1 mm 0 m/S 700 mmHg 94%
    22:00 +20°C° 0,1 mm 0 m/S 700 mmHg 96%
    23:00 +20°C° 0,1 mm 0 m/S 700 mmHg 96%
    Mehr zeigen